Location: Lawrence
(38.9720°N, 95.2350°W)
Time: 16:06:48
(UTC-06:00)

Amateur Radio Satellites - All Passes

Search period start: 18 January 2017 15:36
Search period end: 19 January 2017 15:36
Location: Lawrence, 38.9720°N, 95.2350°W

Satellite Date Start Highest point End Downlink Frequencies (MHz)
Time Altitude Azimuth
DANDE 18 Jan 15:38:59 15:46:43 84° 81° (E) 15:55:07 436.750
MOZHAYETS 4 18 Jan 15:41:13 15:45:45 52° 100° (E) 15:50:17
Cosmos 2491 18 Jan 15:42:17 15:48:15 21° 280° (W) 15:54:15 435.465 / 435.565
AUBIESAT-1 18 Jan 15:45:28 15:46:24 11° 97° (E) 15:47:21 437.475
YUBILEINY 18 Jan 15:45:45 15:54:05 45° 285° (WNW) 16:02:29 435.215
AO-7 18 Jan 15:57:42 16:05:31 44° 260° (W) 16:13:25 29.400- 29.500
AO-85 18 Jan 15:59:30 16:02:41 18° 313° (NW) 16:05:44 145.980
STARS 18 Jan 16:02:46 16:03:50 11° 91° (E) 16:04:54 437.465
CUBESAT XI-V 18 Jan 16:21:43 16:25:17 21° 94° (E) 16:28:47 437.345
O/OREOS (USA 219) 18 Jan 16:22:42 16:26:54 37° 63° (ENE) 16:31:06 437.305
Cosmos 2504 18 Jan 16:27:23 16:35:33 43° 284° (WNW) 16:43:22 435.465 / 435.565
ITUPSAT 1 18 Jan 16:28:44 16:31:54 18° 296° (WNW) 16:35:05 437.325
KKS-1 18 Jan 16:36:56 16:41:21 64° 102° (ESE) 16:45:43 437.445
M-CUBED/EXP-1 PRIME 18 Jan 16:39:08 16:42:32 87° 107° (ESE) 16:45:47 437.505
Cubesat XI-IV 18 Jan 16:39:19 16:42:54 19° 63° (ENE) 16:46:29 437.490
HORYU 2 18 Jan 16:43:37 16:47:52 50° 72° (ENE) 16:52:09 437.375
BRITE-PL 18 Jan 16:44:51 16:50:32 77° 258° (WSW) 16:56:14 437.365/2234.400
BEESAT 3 18 Jan 16:51:26 16:55:16 66° 119° (ESE) 16:59:10 437.485
NOAA 15 18 Jan 16:55:06 16:59:30 27° 66° (ENE) 17:03:56 137.62
JUGNU 18 Jan 16:59:25 17:01:08 11° 181° (S) 17:02:51 437.505
CUSAT 1 18 Jan 16:59:30 17:00:30 10° 284° (WNW) 17:01:30 437.405
GOMX 1 18 Jan 17:00:19 17:05:43 66° 75° (ENE) 17:10:56 467.674
LilacSat-2 18 Jan 17:02:28 17:05:29 23° 70° (ENE) 17:08:31 437.200
SO-50 18 Jan 17:06:45 17:11:05 44° 54° (NE) 17:15:21 436.795
AUBIESAT-1 18 Jan 17:17:57 17:21:02 33° 293° (WNW) 17:24:01 437.475
MOZHAYETS 4 18 Jan 17:19:45 17:22:27 16° 295° (WNW) 17:25:09
DANDE 18 Jan 17:23:25 17:28:43 20° 276° (W) 17:34:17 436.750
BEESAT 2 18 Jan 17:31:24 17:35:19 77° 120° (ESE) 17:39:19 435.950
CUTE-I 18 Jan 17:34:45 17:39:57 60° 73° (ENE) 17:45:12 437.470
STARS 18 Jan 17:36:15 17:40:33 61° 286° (WNW) 17:44:51 437.465
DOVE 4 18 Jan 17:50:39 17:55:45 83° 77° (ENE) 18:00:36 437.250
HO-68 18 Jan 17:53:26 17:59:06 26° 60° (ENE) 18:04:45 435.675
CUBESAT XI-V 18 Jan 17:58:26 18:02:43 36° 289° (WNW) 18:06:59 437.345
CINEMA 3 18 Jan 17:59:17 18:02:42 22° 69° (ENE) 18:06:01 145.822/145.860
O/OREOS (USA 219) 18 Jan 18:02:51 18:06:00 19° 259° (W) 18:09:09 437.305
NOAA 18 18 Jan 18:04:13 18:09:39 64° 72° (ENE) 18:15:06 137.9125
KKS-1 18 Jan 18:15:41 18:17:20 12° 297° (WNW) 18:18:58 437.445
Cubesat XI-IV 18 Jan 18:17:18 18:22:30 55° 259° (W) 18:27:44 437.490
CUTE 1.7 + AOD 2 18 Jan 18:19:09 18:22:11 19° 67° (ENE) 18:25:13 437.475
HORYU 2 18 Jan 18:22:29 18:24:41 14° 268° (W) 18:26:52 437.375
SRMSAT 18 Jan 18:25:10 18:26:35 11° 175° (S) 18:27:59 437.500
BEESAT 3 18 Jan 18:31:30 18:33:19 13° 317° (NW) 18:35:09 437.485
NOAA 15 18 Jan 18:34:17 18:39:06 36° 262° (W) 18:43:58 137.62
LilacSat-2 18 Jan 18:36:47 18:39:41 21° 265° (W) 18:42:36 437.200
GONETS M04 18 Jan 18:39:55 18:44:55 17° 77° (ENE) 18:49:54
GOMX 1 18 Jan 18:41:03 18:44:06 15° 269° (W) 18:47:07 467.674
CANX-2 18 Jan 18:46:44 18:50:46 45° 73° (ENE) 18:54:51 2200.000
SO-50 18 Jan 18:48:08 18:51:11 18° 250° (WSW) 18:54:12 436.795
STRAND 1 18 Jan 18:53:10 18:57:17 24° 95° (E) 19:01:23 437.568
Cosmos 2499 18 Jan 18:54:37 19:01:24 28° 85° (E) 19:07:49 435.465 / 435.565
SEEDS 18 Jan 19:02:20 19:06:14 38° 72° (ENE) 19:10:10 437.485
CUBEBUG 2 18 Jan 19:07:44 19:11:14 26° 70° (ENE) 19:14:43 437.445
COMPASS 1 18 Jan 19:11:54 19:15:37 32° 71° (ENE) 19:19:23 437.405
BEESAT 2 18 Jan 19:12:10 19:13:38 12° 318° (NW) 19:15:06 435.950
AIST 2 18 Jan 19:12:17 19:14:55 17° 110° (ESE) 19:17:34 435.215
CUTE-I 18 Jan 19:17:17 19:20:23 16° 268° (W) 19:23:30 437.470
AAUSAT CUBESAT 2 18 Jan 19:25:15 19:29:01 34° 72° (ENE) 19:32:50 437.432
CINEMA 3 18 Jan 19:35:40 19:39:40 31° 263° (W) 19:43:32 145.822/145.860
HO-68 18 Jan 19:39:10 19:46:16 62° 258° (WSW) 19:53:25 435.675
UWE-3 18 Jan 19:40:03 19:43:54 38° 72° (ENE) 19:47:45 435.000/436.395/437.385
FUNcube-1 18 Jan 19:42:15 19:45:25 22° 69° (ENE) 19:48:36 145.935
NOAA 18 18 Jan 19:47:31 19:50:43 16° 268° (W) 19:53:56 137.9125
CUTE 1.7 + AOD 2 18 Jan 19:53:55 19:57:46 34° 263° (W) 20:01:39 437.475
ZACube-1 18 Jan 20:03:19 20:07:12 41° 73° (ENE) 20:11:07 437.345
SRMSAT 18 Jan 20:13:28 20:14:48 11° 186° (S) 20:16:08 437.500
CANX-2 18 Jan 20:24:38 20:26:50 14° 268° (W) 20:29:04 2200.000
GONETS M04 18 Jan 20:31:43 20:40:24 89° 274° (W) 20:49:13
STRAND 1 18 Jan 20:31:48 20:36:32 38° 290° (WNW) 20:41:15 437.568
HUMSAT D 18 Jan 20:33:49 20:35:56 14° 65° (ENE) 20:38:03 437.325/437.525
SEEDS 18 Jan 20:39:25 20:42:03 16° 268° (W) 20:44:44 437.485
Oscar 11 18 Jan 20:42:56 20:47:14 78° 258° (WSW) 20:51:35 145.826/435.025
CUBEBUG 2 18 Jan 20:44:31 20:47:49 22° 265° (W) 20:51:07 437.445
Cosmos 2499 18 Jan 20:45:39 20:54:02 58° 281° (W) 21:01:52 435.465 / 435.565
COMPASS 1 18 Jan 20:48:12 20:51:13 19° 266° (W) 20:54:15 437.405
AIST 2 18 Jan 20:49:07 20:53:02 41° 306° (NW) 20:57:00 435.215
PRISM 18 Jan 20:53:58 20:56:58 19° 95° (E) 20:59:55 437.425
DELFI C3 18 Jan 20:59:35 21:03:27 50° 75° (ENE) 21:07:22 145.870
AAUSAT CUBESAT 2 18 Jan 21:01:44 21:04:34 18° 267° (W) 21:07:25 437.432
FUNcube-1 18 Jan 21:17:59 21:21:30 27° 264° (W) 21:25:04 145.935
UWE-3 18 Jan 21:18:02 21:20:31 15° 267° (W) 21:22:59 435.000/436.395/437.385
ZACube-1 18 Jan 21:41:28 21:43:41 14° 268° (W) 21:45:55 437.345
CUBEBUG 1 18 Jan 22:05:48 22:07:33 12° 63° (ENE) 22:09:19 437.445
HUMSAT D 18 Jan 22:07:12 22:11:06 45° 261° (W) 22:15:05 437.325/437.525
RS-15 18 Jan 22:14:17 22:22:24 22° 99° (E) 22:30:41 29.354- 29.394
UNISAT 6 18 Jan 22:16:48 22:21:09 54° 100° (E) 22:25:35 437.425
AISAT 18 Jan 22:17:49 22:18:58 11° 62° (ENE) 22:20:08 437.250
ISS 18 Jan 22:24:44 22:27:40 32° 135° (SE) 22:30:37 145.825
ESTCUBE 1 18 Jan 22:28:28 22:32:37 37° 71° (ENE) 22:36:48 437.505/2401.250
PRISM 18 Jan 22:28:40 22:32:17 30° 290° (WNW) 22:35:52 437.425
TIGRISAT 18 Jan 22:30:43 22:35:08 72° 101° (E) 22:39:38 435.000
JAS-2 18 Jan 22:32:25 22:38:51 34° 96° (E) 22:45:41 435.910
GONETS M04 18 Jan 22:33:08 22:38:31 17° 297° (WNW) 22:43:58
BY70-1 18 Jan 22:36:59 22:39:52 77° 256° (WSW) 22:43:02 436.1900
DELFI C3 18 Jan 22:37:23 22:38:33 11° 269° (W) 22:39:42 145.870
ANTELSAT 18 Jan 22:45:29 22:49:54 73° 284° (WNW) 22:54:24 437.575/2403.000
VELOX 1 18 Jan 22:48:43 22:52:11 22° 67° (ENE) 22:55:38 145.980
AO-85 18 Jan 22:50:16 22:53:43 29° 51° (NE) 22:57:08 145.980
POPSAT HIP 1 18 Jan 23:00:19 23:02:23 13° 92° (E) 23:04:27 437.405
DUCHIFAT 1 18 Jan 23:13:01 23:15:39 16° 93° (E) 23:18:17 145.980
NANOSAT C BR1 18 Jan 23:17:10 23:20:17 20° 94° (E) 23:23:23 145.865
DX 1 18 Jan 23:26:42 23:30:24 28° 69° (ENE) 23:34:07 434.975-435.025
UKube-1 18 Jan 23:29:58 23:33:17 22° 67° (ENE) 23:36:36 .
SPROUT 18 Jan 23:30:37 23:34:39 44° 73° (ENE) 23:38:43 437.525
CUBEBUG 1 18 Jan 23:38:55 23:43:17 62° 259° (W) 23:47:40 437.445
50 SAT 18 Jan 23:44:01 23:47:33 68° 76° (ENE) 23:51:07 437.505
AISAT 18 Jan 23:50:22 23:54:49 72° 259° (WSW) 23:59:16 437.250
UNISAT 6 18 Jan 23:55:07 23:57:26 14° 295° (WNW) 23:59:46 437.425
BUGSAT 1 18 Jan 23:55:09 23:57:43 16° 94° (E) 00:00:17 437.445
ISS 19 Jan 00:01:19 00:04:09 27° 331° (NNW) 00:07:01 145.825
YUBILEINY 19 Jan 00:02:12 00:07:31 17° 62° (ENE) 00:12:46 435.215
ESTCUBE 1 19 Jan 00:06:14 00:09:31 20° 266° (W) 00:12:48 437.505/2401.250
QB50P1 19 Jan 00:07:27 00:11:40 86° 99° (E) 00:15:54 145.935-145.965
PCSat 19 Jan 00:07:41 00:11:30 20° 106° (ESE) 00:15:21 145.827
TIGRISAT 19 Jan 00:10:12 00:11:14 11° 297° (WNW) 00:12:17 435.000
POLYITAN 1 19 Jan 00:11:00 00:15:14 86° 286° (WNW) 00:19:29 437.675
QB50P2 19 Jan 00:12:12 00:16:25 77° 286° (WNW) 00:20:39 145.880/145.840
JAS-2 19 Jan 00:17:08 00:23:53 48° 290° (WNW) 00:31:12 435.910
RS-15 19 Jan 00:21:13 00:33:04 89° 119° (ESE) 00:45:28 29.354- 29.394
VELOX 1 19 Jan 00:24:28 00:28:26 32° 263° (W) 00:32:25 145.980
AO-85 19 Jan 00:30:57 00:33:55 21° 248° (WSW) 00:36:54 145.980
POPSAT HIP 1 19 Jan 00:34:21 00:38:24 46° 287° (WNW) 00:42:26 437.405
DUCHIFAT 1 19 Jan 00:47:34 00:51:27 38° 288° (WNW) 00:55:21 145.980
AIST 1 19 Jan 00:49:55 00:53:31 26° 76° (ENE) 00:57:06
Cosmos 2491 19 Jan 00:51:05 00:56:00 17° 77° (ENE) 01:00:54 435.465 / 435.565
NANOSAT C BR1 19 Jan 00:52:19 00:56:01 31° 289° (WNW) 00:59:43 145.865
BEESAT 19 Jan 00:56:22 00:58:27 13° 62° (ENE) 01:00:31 436.000
Oscar 19 19 Jan 00:57:11 01:01:15 23° 94° (E) 01:05:17 437.125/150
SWISSCUBE 19 Jan 00:57:13 00:59:49 15° 63° (ENE) 01:02:26 437.505
Gurwin Techsat 1B 19 Jan 00:58:45 01:00:45 12° 90° (E) 01:02:45 435.225
DX 1 19 Jan 01:02:57 01:06:32 25° 264° (W) 01:10:07 434.975-435.025
TISAT 1 19 Jan 01:04:45 01:08:55 74° 76° (ENE) 01:13:05 437.305
UKube-1 19 Jan 01:05:17 01:09:07 31° 263° (W) 01:12:59 .
SPROUT 19 Jan 01:08:29 01:10:46 14° 268° (W) 01:13:05 437.525
BEESAT 3 19 Jan 01:09:39 01:13:05 26° 51° (NE) 01:16:29 437.485
BUGSAT 1 19 Jan 01:29:31 01:33:11 34° 288° (WNW) 01:36:51 437.445
ISS 19 Jan 01:41:06 01:41:30 10° 350° (N) 01:41:54 145.825
PCSat 19 Jan 01:49:10 01:54:27 53° 302° (WNW) 01:59:46 145.827
BEESAT 2 19 Jan 01:50:26 01:54:04 31° 52° (NE) 01:57:40 435.950
ITUPSAT 1 19 Jan 01:55:14 01:59:48 49° 72° (ENE) 02:04:24 437.325
YUBILEINY 19 Jan 01:56:47 02:05:41 86° 83° (E) 02:14:27 435.215
AO-7 19 Jan 02:11:52 02:14:11 11° 88° (E) 02:16:29 29.400- 29.500
Cosmos 2504 19 Jan 02:21:23 02:28:47 66° 80° (E) 02:35:52 435.465 / 435.565
AIST 1 19 Jan 02:27:39 02:30:57 22° 272° (W) 02:34:14
AUBIESAT-1 19 Jan 02:28:32 02:31:25 18° 63° (ENE) 02:34:11 437.475
BEESAT 19 Jan 02:30:53 02:35:37 69° 258° (WSW) 02:40:22 436.000
SWISSCUBE 19 Jan 02:32:25 02:37:05 59° 259° (W) 02:41:48 437.505
CUSAT 1 19 Jan 02:32:29 02:35:53 19° 81° (E) 02:39:53 437.405
Oscar 19 19 Jan 02:35:53 02:40:40 39° 290° (WNW) 02:45:26 437.125/150
Gurwin Techsat 1B 19 Jan 02:35:55 02:41:14 76° 285° (WNW) 02:46:32 435.225
RS-15 19 Jan 02:36:54 02:47:22 33° 326° (NW) 02:58:08 29.354- 29.394
MOZHAYETS 4 19 Jan 02:41:45 02:46:02 42° 72° (ENE) 02:50:23
Cosmos 2491 19 Jan 02:42:48 02:51:31 89° 281° (WNW) 03:00:18 435.465 / 435.565
BEESAT 3 19 Jan 02:47:17 02:50:36 25° 247° (WSW) 02:53:55 437.485
PHONESAT 2.4 19 Jan 03:14:26 03:16:44 59° 161° (SSE) 03:19:00 2401.200-2431.200
ITAMSAT 1 19 Jan 03:14:43 03:19:46 49° 100° (E) 03:24:48 435.822/435.867
ISS 19 Jan 03:18:25 03:19:13 11° 11° (N) 03:20:01 145.825
M-CUBED/EXP-1 PRIME 19 Jan 03:22:54 03:27:22 90° 102° (ESE) 03:31:35 437.505
CUBESAT XI-V 19 Jan 03:24:10 03:27:26 19° 66° (ENE) 03:30:42 437.345
BEESAT 2 19 Jan 03:28:31 03:31:40 22° 248° (WSW) 03:34:48 435.950
KKS-1 19 Jan 03:33:31 03:37:49 50° 73° (ENE) 03:42:08 437.445
ITUPSAT 1 19 Jan 03:34:59 03:37:53 16° 267° (W) 03:40:49 437.325
AIST 2 19 Jan 03:35:03 03:36:15 11° 41° (NE) 03:37:27 435.215
YUBILEINY 19 Jan 03:55:53 04:01:13 18° 282° (WNW) 04:06:32 435.215
AO-7 19 Jan 03:59:53 04:08:16 71° 105° (ESE) 04:16:33 29.400- 29.500
AUBIESAT-1 19 Jan 04:01:26 04:05:33 40° 256° (WSW) 04:09:28 437.475
CUSAT 1 19 Jan 04:12:16 04:16:58 50° 286° (WNW) 04:23:06 437.405
Cosmos 2504 19 Jan 04:16:25 04:21:17 19° 279° (W) 04:26:04 435.465 / 435.565
MOZHAYETS 4 19 Jan 04:20:24 04:23:23 17° 268° (W) 04:26:23
STARS 19 Jan 04:31:10 04:35:33 82° 256° (WSW) 04:39:58 437.465
HORYU 2 19 Jan 04:38:47 04:39:13 10° 91° (E) 04:39:40 437.375
Cosmos 2491 19 Jan 04:44:11 04:49:36 18° 297° (WNW) 04:55:04 435.465 / 435.565
DANDE 19 Jan 04:47:31 04:51:03 78° 280° (W) 04:55:49 436.750
PHONESAT 2.4 19 Jan 04:48:36 04:50:53 53° 358° (N) 04:53:09 2401.200-2431.200
BRITE-PL 19 Jan 04:52:07 04:56:41 38° 96° (E) 05:00:54 437.365/2234.400
ISS 19 Jan 04:53:33 04:56:30 31° 31° (NNE) 04:59:27 145.825
ITAMSAT 1 19 Jan 04:55:08 04:58:51 20° 296° (WNW) 05:02:34 435.822/435.867
RS-15 19 Jan 04:57:21 05:05:33 19° 1° (N) 05:13:45 29.354- 29.394
CUBESAT XI-V 19 Jan 05:00:00 05:04:27 43° 262° (W) 05:08:56 437.345
GOMX 1 19 Jan 05:05:08 05:08:08 18° 92° (E) 05:11:02 467.674
AIST 2 19 Jan 05:11:07 05:15:24 85° 61° (ENE) 05:19:37 435.215
KKS-1 19 Jan 05:12:21 05:14:38 14° 268° (W) 05:16:56 437.445
NOAA 15 19 Jan 05:14:30 05:14:55 10° 89° (E) 05:15:20 137.62
DOVE 4 19 Jan 05:51:49 05:54:59 21° 94° (E) 05:58:08 437.250
CUTE-I 19 Jan 05:53:27 05:57:53 26° 95° (E) 06:02:18 437.470
AO-7 19 Jan 05:53:43 06:00:18 27° 304° (NW) 06:06:52 29.400- 29.500
STRAND 1 19 Jan 06:07:51 06:12:15 31° 68° (ENE) 06:16:41 437.568
LilacSat-2 19 Jan 06:10:08 06:13:48 40° 98° (E) 06:17:28 437.200
HORYU 2 19 Jan 06:11:45 06:16:10 68° 286° (WNW) 06:20:36 437.375
PHONESAT 2.4 19 Jan 06:22:46 06:25:04 80° 194° (SSW) 06:27:22 2401.200-2431.200
NOAA 18 19 Jan 06:27:55 06:32:37 29° 97° (E) 06:37:18 137.9125
ISS 19 Jan 06:30:07 06:32:55 26° 227° (SW) 06:35:41 145.825
BRITE-PL 19 Jan 06:31:11 06:34:50 21° 295° (WNW) 06:38:17 437.365/2234.400
O/OREOS (USA 219) 19 Jan 06:33:31 06:37:54 55° 107° (ESE) 06:42:16 437.305
Cubesat XI-IV 19 Jan 06:35:31 06:40:49 65° 101° (ESE) 06:46:07 437.490
Cosmos 2499 19 Jan 06:38:45 06:45:32 44° 76° (ENE) 06:52:12 435.465 / 435.565
GOMX 1 19 Jan 06:42:20 06:46:24 35° 289° (WNW) 06:50:15 467.674
GONETS M04 19 Jan 06:43:40 06:52:00 44° 75° (ENE) 07:00:18
NOAA 15 19 Jan 06:49:59 06:55:21 87° 280° (W) 07:00:38 137.62
HO-68 19 Jan 07:08:45 07:14:46 28° 95° (E) 07:20:43 435.675
RS-15 19 Jan 07:12:47 07:23:39 33° 35° (NE) 07:34:12 29.354- 29.394
SO-50 19 Jan 07:20:43 07:24:05 19° 110° (ESE) 07:27:25 436.795
DOVE 4 19 Jan 07:29:08 07:32:43 28° 290° (WNW) 07:36:14 437.250
CINEMA 3 19 Jan 07:30:32 07:34:40 62° 101° (E) 07:38:55 145.822/145.860
CUTE-I 19 Jan 07:33:07 07:37:58 37° 291° (WNW) 07:42:50 437.470
CUTE 1.7 + AOD 2 19 Jan 07:39:30 07:43:36 42° 98° (E) 07:47:40 437.475
PRISM 19 Jan 07:43:12 07:45:10 13° 64° (ENE) 07:47:07 437.425
LilacSat-2 19 Jan 07:45:46 07:47:43 14° 294° (WNW) 07:49:40 437.200
STRAND 1 19 Jan 07:46:58 07:51:22 29° 264° (W) 07:55:48 437.568
PHONESAT 2.4 19 Jan 07:57:34 07:58:56 14° 209° (SSW) 08:00:18 2401.200-2431.200
CANX-2 19 Jan 08:08:17 08:12:36 74° 284° (WNW) 08:16:52 2200.000
NOAA 18 19 Jan 08:08:22 08:13:16 35° 292° (WNW) 08:18:08 137.9125
O/OREOS (USA 219) 19 Jan 08:15:09 08:17:38 15° 305° (NW) 08:20:09 437.305
Cubesat XI-IV 19 Jan 08:17:09 08:20:19 16° 298° (WNW) 08:23:30 437.490
SEEDS 19 Jan 08:22:24 08:26:41 90° 340° (NNW) 08:30:56 437.485
COMPASS 1 19 Jan 08:30:35 08:34:49 73° 102° (ESE) 08:38:59 437.405
Oscar 11 19 Jan 08:32:00 08:35:18 21° 94° (E) 08:38:36 145.826/435.025
Cosmos 2499 19 Jan 08:32:25 08:38:19 29° 275° (W) 08:44:09 435.465 / 435.565
NOAA 15 19 Jan 08:32:44 08:34:16 11° 301° (WNW) 08:35:48 137.62
CUBEBUG 2 19 Jan 08:34:47 08:39:07 76° 101° (ESE) 08:43:34 437.445
GONETS M04 19 Jan 08:40:42 08:48:39 39° 274° (W) 08:56:36
AAUSAT CUBESAT 2 19 Jan 08:43:21 08:47:34 78° 102° (ESE) 08:51:43 437.432
HO-68 19 Jan 08:55:49 09:02:43 53° 292° (WNW) 09:09:36 435.675
PCSat 19 Jan 08:56:10 08:59:22 16° 44° (NE) 09:02:33 145.827
SO-50 19 Jan 08:59:40 09:04:14 46° 306° (NW) 09:08:43 436.795
FUNcube-1 19 Jan 09:05:52 09:10:11 56° 100° (E) 09:14:34 145.935
UWE-3 19 Jan 09:06:13 09:10:34 77° 284° (WNW) 09:15:02 435.000/436.395/437.385
CINEMA 3 19 Jan 09:10:16 09:11:19 11° 296° (WNW) 09:12:22 145.822/145.860
UNISAT 6 19 Jan 09:14:37 09:18:35 38° 72° (ENE) 09:22:32 437.425
PRISM 19 Jan 09:15:56 09:19:59 51° 260° (W) 09:24:04 437.425
CUTE 1.7 + AOD 2 19 Jan 09:16:25 09:19:04 16° 294° (WNW) 09:21:42 437.475
RS-15 19 Jan 09:25:25 09:37:50 87° 241° (WSW) 09:49:42 29.354- 29.394
ZACube-1 19 Jan 09:28:08 09:32:30 74° 284° (WNW) 09:36:56 437.345
TIGRISAT 19 Jan 09:28:13 09:32:20 51° 74° (ENE) 09:36:28 435.000
ANTELSAT 19 Jan 09:42:56 09:47:12 83° 77° (ENE) 09:51:29 437.575/2403.000
HUMSAT D 19 Jan 09:51:33 09:55:18 29° 96° (E) 09:59:04 437.325/437.525
DUCHIFAT 1 19 Jan 10:05:30 10:06:33 11° 63° (ENE) 10:07:36 145.980
Oscar 11 19 Jan 10:07:35 10:11:27 32° 289° (WNW) 10:15:19 145.826/435.025
NANOSAT C BR1 19 Jan 10:09:13 10:11:17 13° 65° (ENE) 10:13:20 145.865
DELFI C3 19 Jan 10:12:28 10:16:29 80° 284° (WNW) 10:20:27 145.870
JAS-2 19 Jan 10:28:39 10:33:52 71° 74° (ENE) 10:39:35 435.910
PCSat 19 Jan 10:38:02 10:43:30 87° 243° (WSW) 10:48:54 145.827
FUNcube-1 19 Jan 10:43:53 10:45:58 13° 295° (WNW) 10:48:02 145.935
BUGSAT 1 19 Jan 10:45:47 10:46:32 10° 64° (ENE) 10:47:17 437.445
UNISAT 6 19 Jan 10:52:47 10:55:26 16° 267° (W) 10:58:06 437.425
QB50P1 19 Jan 10:58:22 11:02:26 52° 74° (ENE) 11:06:32 145.935-145.965
POLYITAN 1 19 Jan 11:02:04 11:06:10 58° 74° (ENE) 11:10:18 437.675
QB50P2 19 Jan 11:03:13 11:07:22 65° 75° (ENE) 11:11:32 145.880/145.840
TIGRISAT 19 Jan 11:07:39 11:09:19 12° 269° (W) 11:10:59 435.000
BY70-1 19 Jan 11:13:09 11:16:29 65° 100° (E) 11:19:37 436.1900
POPSAT HIP 1 19 Jan 11:25:02 11:29:13 76° 257° (WSW) 11:33:26 437.405
HUMSAT D 19 Jan 11:27:24 11:30:44 22° 292° (WNW) 11:34:05 437.325/437.525
CUBEBUG 1 19 Jan 11:29:06 11:32:41 25° 96° (E) 11:36:15 437.445
DUCHIFAT 1 19 Jan 11:37:32 11:41:40 63° 259° (WSW) 11:45:48 145.980
RS-15 19 Jan 11:40:24 11:48:25 21° 262° (W) 11:56:18 29.354- 29.394
AISAT 19 Jan 11:42:14 11:45:42 23° 95° (E) 11:49:09 437.250
NANOSAT C BR1 19 Jan 11:42:31 11:46:34 49° 260° (W) 11:50:38 145.865
ESTCUBE 1 19 Jan 11:58:16 12:02:50 85° 282° (WNW) 12:07:20 437.505/2401.250
Oscar 19 19 Jan 12:12:40 12:17:10 31° 68° (ENE) 12:21:42 437.125/150
VELOX 1 19 Jan 12:15:05 12:19:22 50° 100° (E) 12:23:37 145.980
BUGSAT 1 19 Jan 12:17:20 12:21:22 61° 260° (W) 12:25:23 437.445
JAS-2 19 Jan 12:17:34 12:19:45 12° 273° (W) 12:21:59 435.910
Gurwin Techsat 1B 19 Jan 12:17:58 12:21:37 19° 63° (ENE) 12:25:16 435.225
QB50P1 19 Jan 12:36:59 12:38:30 12° 269° (W) 12:40:01 145.935-145.965
POLYITAN 1 19 Jan 12:41:38 12:42:19 10° 269° (W) 12:42:59 437.675
50 SAT 19 Jan 12:43:43 12:47:19 87° 276° (W) 12:50:49 437.505
DX 1 19 Jan 12:51:15 12:55:33 60° 101° (E) 12:59:49 434.975-435.025
TISAT 1 19 Jan 12:51:41 12:53:19 12° 92° (E) 12:54:57 437.305
UKube-1 19 Jan 12:52:54 12:57:02 44° 100° (E) 13:01:08 .
SPROUT 19 Jan 12:52:58 12:57:14 78° 284° (WNW) 13:01:28 437.525
Cosmos 2491 19 Jan 12:54:51 13:03:08 43° 75° (ENE) 13:11:22 435.465 / 435.565
YUBILEINY 19 Jan 13:02:55 13:08:41 20° 79° (ENE) 13:14:26 435.215
AO-85 19 Jan 13:04:40 13:07:18 15° 110° (ESE) 13:09:50 145.980
CUSAT 1 19 Jan 13:04:53 13:10:42 22° 64° (ENE) 13:16:17 437.405
CUBEBUG 1 19 Jan 13:05:17 13:08:53 26° 291° (WNW) 13:12:27 437.445
AO-7 19 Jan 13:08:34 13:13:55 19° 51° (NE) 13:19:17 29.400- 29.500
AISAT 19 Jan 13:18:20 13:22:09 30° 291° (WNW) 13:25:57 437.250
AIST 1 19 Jan 13:18:41 13:21:31 17° 87° (E) 13:24:22
DANDE 19 Jan 13:43:03 13:47:32 16° 64° (ENE) 13:52:13 436.750
Oscar 19 19 Jan 13:51:51 13:56:24 31° 264° (W) 14:01:00 437.125/150
VELOX 1 19 Jan 13:52:58 13:55:23 15° 296° (WNW) 13:57:47 145.980
Gurwin Techsat 1B 19 Jan 13:55:56 14:01:06 54° 259° (W) 14:06:19 435.225
ITUPSAT 1 19 Jan 13:58:27 14:00:53 14° 92° (E) 14:03:21 437.325
TISAT 1 19 Jan 14:25:10 14:29:14 50° 286° (WNW) 14:33:15 437.305
DX 1 19 Jan 14:29:27 14:31:12 12° 297° (WNW) 14:32:57 434.975-435.025
UKube-1 19 Jan 14:30:06 14:32:41 16° 295° (WNW) 14:35:16 .
ITAMSAT 1 19 Jan 14:31:25 14:36:32 67° 73° (ENE) 14:41:41 435.822/435.867
BEESAT 19 Jan 14:32:21 14:36:39 32° 97° (E) 14:40:56 436.000
SWISSCUBE 19 Jan 14:33:45 14:38:13 38° 98° (E) 14:42:39 437.505
MOZHAYETS 4 19 Jan 14:40:19 14:41:34 11° 90° (E) 14:42:49
AO-85 19 Jan 14:42:39 14:47:21 58° 303° (WNW) 14:51:42 145.980
CUSAT 1 19 Jan 14:45:29 14:53:31 82° 263° (W) 15:00:55 437.405
Cosmos 2491 19 Jan 14:51:54 14:59:49 40° 274° (W) 15:07:45 435.465 / 435.565
AIST 1 19 Jan 14:54:46 14:58:49 36° 283° (WNW) 15:02:50
YUBILEINY 19 Jan 14:55:31 15:04:19 81° 277° (W) 15:13:14 435.215
Cosmos 2504 19 Jan 14:56:29 15:05:02 61° 92° (E) 15:13:07 435.465 / 435.565
AO-7 19 Jan 14:57:06 15:05:28 84° 70° (ENE) 15:13:53 29.400- 29.500
KKS-1 19 Jan 15:29:00 15:29:13 10° 90° (E) 15:29:26 437.445
